Regional Weather Roundup
Issued by NWS

Home | Current Version | Previous Version | Graphics & Text | Print | Product List | Glossary On
Versions: 1 2 3 4 5 6 7 8 9 10 11 12 13 14 15 16 17 18 19 20 21 22 23 24 25 26 27 28 29 30 31 32 33 34 35 36 37 38 39 40 41 42 43 44 45 46 47 48 49 50
000
ASUS45 KBOU 040910
RWRCO

WEATHER ROUNDUP FOR COLORADO
NATIONAL WEATHER SERVICE DENVER/BOULDER CO
300 AM MDT SAT JUL 04 2015

NOTE: "FAIR" INDICATES FEW OR NO CLOUDS BELOW 12000 FEET WITH NO
SIGNIFICANT WEATHER AND/OR OBSTRUCTIONS TO VISIBILITY.

COZ001>005-013-030-031-041000-
...NORTHWEST COLORADO...

CITY           SKY/WX    TMP DP  RH WIND       PRES   REMARKS
CRAIG          PTCLDY    54  45  71 CALM      30.11R
HAYDEN         MOCLDY    57  39  51 S3        30.13R
MEEKER         PTCLDY    59  47  64 CALM      30.14R
MOUNT WERNER   NOT AVBL
STEAMBOAT SPGS PTCLDY    54  40  58 CALM      30.16R
WALDEN         PTCLDY    54  41  62 SE5       30.24S
$$

COZ006>008-011-041000-
...WEST CENTRAL VALLEYS...

CITY           SKY/WX    TMP DP  RH WIND       PRES   REMARKS
GRAND JUNCTION PTCLDY    74  50  42 E18       30.02R
MONTROSE       PTCLDY    65  48  54 E7        30.15R
EAGLE          CLEAR     59  48  67 E7        30.18F
RIFLE          PTCLDY    65  53  65 E5        30.10R
DELTA          PTCLDY    68  52  56 CALM      30.09S
NUCLA          PTCLDY    63  48  59 S3        30.18R
$$

COZ017>023-064>068-041000-
...SOUTHWEST COLORADO...

CITY           SKY/WX    TMP DP  RH WIND       PRES   REMARKS
DURANGO        MOCLDY    53  46  77 S3        30.22R
CORTEZ         PTCLDY    63  53  70 E3        30.16R
PAGOSA SPRINGS MOCLDY    53  50  92 CALM      30.30F
TELLURIDE      PTCLDY    53  43  70 CALM      30.39F
WOLF CREEK PAS NOT AVBL
$$

COZ009-010-012-014-032>034-037-058>063-041000-
...CENTRAL COLORADO...

CITY           SKY/WX    TMP DP  RH WIND       PRES   REMARKS
ASPEN          PTCLDY    61  44  53 SE10G25   30.26F
BUENA VISTA    MOCLDY    53  48  84 CALM      30.33F
COPPER MTN     PTCLDY    52  43  71 S23       30.58F
BERTHOUD PASS  FAIR      45  36  70 W13G26    30.60F
COTTONWOOD PAS NOT AVBL
GUNNISON       MOCLDY    61  45  55 NE15G22   30.34F
KREMMLING      CLEAR     55  41  58 CALM      30.23F
LEADVILLE      PTCLDY    47  45  93 CALM      30.44F
MONARCH PASS   PTCLDY    45  41  87 W24       30.70R
SALIDA         MOCLDY    57  51  78 NW9       30.37S
SUNLIGHT       PTCLDY    55  37  50 CALM      30.50F
WILKERSON PASS PTCLDY    45  43  93 SW12G20   30.54F
$$

COZ069>075-041000-
...SAN LUIS VALLEY/SANGRE DE CRISTO MOUNTAINS...

CITY           SKY/WX    TMP DP  RH WIND       PRES   REMARKS
ALAMOSA        PTCLDY    52  49  89 SW3       30.29S
LA VETA PASS   MOCLDY    48  37  66 MISG      30.45S
SAGUACHE       CLEAR     52  46  82 N8        30.33F
$$

COZ035-036-038>040-041000-
...NORTHERN COLORADO FRONT RANGE...

CITY           SKY/WX    TMP DP  RH WIND       PRES   REMARKS
DENVER INTL AP CLEAR     62  52  69 S9        30.04F
DMNS CITY PARK   N/A     66  51  59 SW7       30.03F
AURORA         PTCLDY    64  51  63 S10       30.06F
FRONT RANGE AP CLEAR     66  52  59 SW15      30.05F
ERIE MUNI ARPT CLEAR     63  56  79 CALM      30.02F
BOULDER MUN AP CLEAR     64  57  77 W5        30.03F
CENTENNIAL     PTCLDY    63  50  62 S8        30.07F
BROOMFIELD     CLEAR     64  54  68 S3        30.05F
FORT COLLINS   CLEAR     64  57  77 CALM      30.03S
LONGMONT       CLEAR     63  57  81 SW3       30.04S
$$

COZ041-046-047-076>085-087-088-041000-
...PIKES PEAK/PALMER DIVIDE AND SOUTHERN FOOTHILLS...

CITY           SKY/WX    TMP DP  RH WIND       PRES   REMARKS
COLO. SPRINGS  PTCLDY    57  51  80 N7        30.13F
A. F. ACADEMY  PTCLDY    53  52  99 N8        30.15F
ELLICOTT       PTCLDY   N/A N/A N/A CALM      30.12F
FALCON         CLEAR     52  46  79 W6        30.18F
FORT CARSON    CLEAR     57  53  86 NW8       30.11F
LIMON          CLEAR     56  56 100 SE3       30.09F
MONUMENT HILL  NOT AVBL
TRINIDAD       CLEAR     59  52  77 W7        30.15S
$$

COZ042>045-048>051-090-091-041000-
...NORTHEAST COLORADO...

CITY           SKY/WX    TMP DP  RH WIND       PRES   REMARKS
GREELEY ARPT   CLEAR     63  57  82 CALM      30.00S
AKRON          CLEAR     64  60  87 S12       30.02F
BURLINGTON     CLEAR     63  60  90 SE12      30.04F
WRAY           PTCLDY    65  59  80 SE7       30.01F
STERLING       CLEAR     66  61  82 S9          N/A
HOLYOKE        PTCLDY    63  59  88 SE6       30.01F
FORT MORGAN    CLEAR     64  57  80 SE8       30.00F
$$

COZ086-089-092>099-041000-
...SOUTHEAST COLORADO...

CITY           SKY/WX    TMP DP  RH WIND       PRES   REMARKS
PUEBLO         CLEAR     61  57  87 NW3       30.05F
LA JUNTA       CLEAR     66  54  65 W12       30.03F
LAMAR          PTCLDY    64  60  87 E6        29.99F
SPRINGFIELD      N/A     64  60  87 SW10      30.06F
$$



USA.gov is the U.S. government's official web portal to all federal, state and local government web resources and services.